User: anonymous   Login
Location: Unspecified
(0.0000°N, 0.0000°E)
Time: 04:24:30
(UTC+01:00)
Language:

BREEZE-M DEB (TANK) - Orbit

View from above orbital plane
View from above orbital plane
View from above satellite
View from above satellite

Ground track
Ground track

The orbit data is extracted from the following two-line orbital elements,

1 33374U 08044B   15026.50262741  .00001544  00000-0  37400-3 0  8379
2 33374 049.4114 174.9245 5457518 281.9850 136.0629 04.85010263111565
Epoch (UTC): 26 January 2015 12:03:47
Eccentricity: 0.5457518
inclination: 49.4114°
perigee height: 318 km
apogee height: 16410 km
right ascension of ascending node: 174.9245°
argument of perigee: 281.9850°
revolutions per day: 4.85010263
mean anomaly at epoch: 136.0629°
orbit number at epoch: 11156

The dashed part of the orbit path shows where the satellite is in the earth's shadow,  

DLR